| time (UTC) | temp F | wind direction | speed knots | gust knots | rain 1hr in | rain 24hr in | rain mn in | humidity % | barometer mb |
| 20260906223046 | 94 | 0 | 0.0 | 0.9 | 0.00 | 0.34 | 0.34 | 51 | 1013.4 |
| 20260906221554 | 95 | 0 | 0.0 | 0.9 | 0.00 | 0.34 | 0.34 | 50 | 1013.6 |
| 20260906220052 | 95 | 0 | 0.0 | 0.9 | 0.00 | 0.34 | 0.34 | 51 | 1013.8 |
| 20260906214549 | 96 | 0 | 0.0 | 1.7 | 0.00 | 0.34 | 0.34 | 49 | 1013.6 |
| 20260906213044 | 96 | 0 | 0.0 | 1.7 | 0.00 | 0.34 | 0.34 | 47 | 1013.6 |
| 20260906211555 | 95 | 0 | 0.0 | 2.6 | 0.00 | 0.34 | 0.34 | 50 | 1013.7 |
| 20260906210054 | 92 | 0 | 0.0 | 0.9 | 0.00 | 0.34 | 0.34 | 55 | 1013.7 |
| 20260906204547 | 88 | 0 | 0.0 | 1.7 | 0.00 | 0.34 | 0.34 | 60 | 1013.9 |
| 20260906203053 | 85 | 0 | 0.0 | 2.6 | 0.00 | 0.34 | 0.34 | 65 | 1014.4 |
| 20260906201552 | 85 | 122 | 1.7 | 5.2 | 0.00 | 0.34 | 0.34 | 64 | 1014.9 |
| 20260906200049 | 86 | 59 | 0.9 | 7.0 | 0.00 | 0.34 | 0.34 | 65 | 1014.8 |
| 20260906194547 | 84 | 0 | 0.0 | 0.9 | 0.00 | 0.34 | 0.34 | 72 | 1014.4 |
| 20260906193058 | 81 | 0 | 0.0 | 1.7 | 0.02 | 0.34 | 0.34 | 75 | 1014.5 |
| 20260906191551 | 80 | 37 | 0.0 | 3.5 | 0.02 | 0.34 | 0.34 | 76 | 1014.5 |
| 20260906190056 | 80 | 0 | 0.0 | 2.6 | 0.34 | 0.34 | 0.34 | 75 | 1014.9 |
| 20260906184552 | 78 | 329 | 0.0 | 0.9 | 0.34 | 0.34 | 0.34 | 86 | 1014.7 |
| 20260906183058 | 76 | 0 | 0.0 | 2.6 | 0.32 | 0.32 | 0.32 | 85 | 1015.0 |
| 20260906181550 | 78 | 46 | 1.7 | 12.2 | 0.32 | 0.32 | 0.32 | 77 | 1015.0 |
| 20260906180056 | 99 | 215 | 0.9 | 3.5 | 0.00 | 0.00 | 0.00 | 44 | 1015.2 |
| 20260906174546 | 104 | 134 | 0.0 | 4.3 | 0.00 | 0.00 | 0.00 | 38 | 1015.1 |
| 20260906173054 | 104 | 0 | 0.0 | 3.5 | 0.00 | 0.00 | 0.00 | 37 | 1015.4 |
| 20260906171546 | 103 | 31 | 0.0 | 1.7 | 0.00 | 0.00 | 0.00 | 38 | 1015.8 |
| 20260906170044 | 103 | 0 | 0.0 | 1.7 | 0.00 | 0.00 | 0.00 | 38 | 1016.0 |
| 20260906164555 | 103 | 0 | 0.0 | 0.9 | 0.00 | 0.00 | 0.00 | 39 | 1016.2 |
| 20260906163052 | 102 | 0 | 0.0 | 0.9 | 0.00 | 0.00 | 0.00 | 40 | 1016.4 |
| 20260906161546 | 102 | 0 | 0.0 | 0.9 | 0.00 | 0.00 | 0.00 | 40 | 1016.4 |
| 20260906160109 | 100 | 0 | 0.0 | 2.6 | 0.00 | 0.00 | 0.00 | 42 | 1016.5 |
| 20260906154559 | 99 | 0 | 0.0 | 1.7 | 0.00 | 0.00 | 0.00 | 45 | 1016.4 |
| 20260906153046 | 97 | 0 | 0.0 | 1.7 | 0.00 | 0.00 | 0.00 | 46 | 1016.4 |
| 20260906151545 | 95 | 219 | 0.0 | 0.9 | 0.00 | 0.00 | 0.00 | 51 | 1016.3 |
| 20260906150048 | 93 | 0 | 0.0 | 1.7 | 0.00 | 0.00 | 0.00 | 54 | 1016.3 |
| 20260906144550 | 92 | 186 | 0.0 | 0.9 | 0.00 | 0.00 | 0.00 | 55 | 1016.5 |
| 20260906143048 | 90 | 205 | 0.0 | 0.9 | 0.00 | 0.00 | 0.00 | 58 | 1016.5 |
| 20260906141554 | 87 | 0 | 0.0 | 1.7 | 0.00 | 0.00 | 0.00 | 62 | 1016.4 |
| 20260906140052 | 84 | 0 | 0.0 | 0.9 | 0.00 | 0.00 | 0.00 | 67 | 1016.4 |
| 20260906134556 | 81 | 0 | 0.0 | 0.9 | 0.00 | 0.00 | 0.00 | 71 | 1016.1 |
| 20260906133108 | 79 | 198 | 0.0 | 1.7 | 0.00 | 0.00 | 0.00 | 73 | 1016.0 |
| 20260906131555 | 78 | 0 | 0.0 | 0.0 | 0.00 | 0.00 | 0.00 | 76 | 1015.8 |
| 20260906130052 | 76 | 0 | 0.0 | 0.0 | 0.00 | 0.00 | 0.00 | 79 | 1015.6 |
| 20260906124551 | 74 | 0 | 0.0 | 0.0 | 0.00 | 0.00 | 0.00 | 82 | 1015.3 |
| 20260906123055 | 72 | 0 | 0.0 | 0.0 | 0.00 | 0.00 | 0.00 | 85 | 1015.1 |
| 20260906121552 | 71 | 0 | 0.0 | 0.0 | 0.00 | 0.00 | 0.00 | 86 | 1015.2 |
| 20260906120049 | 71 | 0 | 0.0 | 0.0 | 0.00 | 0.00 | 0.00 | 86 | 1015.3 |
| 20260906114606 | 71 | 0 | 0.0 | 0.0 | 0.00 | 0.00 | 0.00 | 85 | 1015.3 |
| 20260906113054 | 71 | 0 | 0.0 | 0.0 | 0.00 | 0.00 | 0.00 | 85 | 1015.3 |
| 20260906111554 | 72 | 0 | 0.0 | 0.0 | 0.00 | 0.00 | 0.00 | 83 | 1015.1 |
| 20260906110100 | 72 | 0 | 0.0 | 0.0 | 0.00 | 0.00 | 0.00 | 82 | 1014.9 |
| 20260906104623 | 72 | 0 | 0.0 | 0.0 | 0.00 | 0.00 | 0.00 | 82 | 1015.0 |
| 20260906103054 | 73 | 0 | 0.0 | 0.0 | 0.00 | 0.00 | 0.00 | 82 | 1014.9 |
| 20260906101553 | 73 | 0 | 0.0 | 0.0 | 0.00 | 0.00 | 0.00 | 82 | 1014.8 |
| 20260906100045 | 73 | 0 | 0.0 | 0.0 | 0.00 | 0.00 | 0.00 | 82 | 1014.7 |
| 20260906094546 | 73 | 0 | 0.0 | 0.0 | 0.00 | 0.00 | 0.00 | 81 | 1014.7 |
| 20260906093113 | 73 | 0 | 0.0 | 0.0 | 0.00 | 0.00 | 0.00 | 81 | 1014.6 |
| 20260906091550 | 73 | 0 | 0.0 | 0.0 | 0.00 | 0.00 | 0.00 | 81 | 1014.5 |
| 20260906090050 | 73 | 0 | 0.0 | 0.0 | 0.00 | 0.00 | 0.00 | 80 | 1014.4 |
| 20260906084545 | 73 | 0 | 0.0 | 0.0 | 0.00 | 0.00 | 0.00 | 80 | 1014.1 |
| 20260906083053 | 74 | 0 | 0.0 | 0.0 | 0.00 | 0.00 | 0.00 | 79 | 1014.0 |
| 20260906081551 | 74 | 0 | 0.0 | 0.0 | 0.00 | 0.00 | 0.00 | 79 | 1014.1 |
| 20260906080047 | 74 | 0 | 0.0 | 0.0 | 0.00 | 0.00 | 0.00 | 78 | 1014.1 |
| 20260906074556 | 75 | 0 | 0.0 | 0.0 | 0.00 | 0.00 | 0.00 | 78 | 1014.2 |
| 20260906073056 | 75 | 0 | 0.0 | 0.0 | 0.00 | 0.00 | 0.00 | 77 | 1014.4 |
| 20260906071552 | 76 | 0 | 0.0 | 0.0 | 0.00 | 0.00 | 0.00 | 77 | 1014.4 |
| 20260906070045 | 76 | 0 | 0.0 | 0.0 | 0.00 | 0.00 | 0.00 | 76 | 1014.2 |
| 20260906064554 | 76 | 0 | 0.0 | 0.0 | 0.00 | 0.00 | 0.00 | 76 | 1014.3 |
| 20260906063046 | 77 | 0 | 0.0 | 0.0 | 0.00 | 0.00 | 0.00 | 74 | 1014.2 |
| 20260906061559 | 77 | 0 | 0.0 | 0.0 | 0.00 | 0.00 | 0.00 | 73 | 1014.3 |
| 20260906060053 | 77 | 0 | 0.0 | 0.0 | 0.00 | 0.00 | 0.00 | 72 | 1014.4 |
| 20260906054601 | 78 | 0 | 0.0 | 0.0 | 0.00 | 0.00 | 0.00 | 71 | 1014.4 |
| 20260906053047 | 79 | 0 | 0.0 | 0.0 | 0.00 | 0.00 | 0.00 | 70 | 1014.5 |
| 20260906051553 | 79 | 0 | 0.0 | 0.0 | 0.00 | 0.00 | 0.00 | 69 | 1014.5 |
| 20260906050112 | 79 | 0 | 0.0 | 0.0 | 0.00 | 0.00 | 0.00 | 69 | 1014.4 |
| 20260906044549 | 80 | 0 | 0.0 | 0.0 | 0.00 | 0.00 | 0.00 | 69 | 1014.4 |
| 20260906043044 | 80 | 0 | 0.0 | 0.0 | 0.00 | 0.00 | 0.00 | 68 | 1014.4 |
| 20260906041543 | 80 | 0 | 0.0 | 0.0 | 0.00 | 0.00 | 0.00 | 69 | 1014.4 |
| 20260906040050 | 80 | 0 | 0.0 | 0.0 | 0.00 | 0.00 | 0.00 | 68 | 1014.6 |
| 20260906034546 | 81 | 0 | 0.0 | 0.0 | 0.00 | 0.00 | 0.00 | 67 | 1014.3 |
| 20260906033053 | 82 | 0 | 0.0 | 0.0 | 0.00 | 0.00 | 0.00 | 65 | 1014.1 |
| 20260906031547 | 82 | 0 | 0.0 | 0.0 | 0.00 | 0.00 | 0.00 | 63 | 1014.0 |
| 20260906030045 | 82 | 0 | 0.0 | 0.0 | 0.00 | 0.00 | 0.00 | 63 | 1013.9 |
| 20260906024545 | 83 | 0 | 0.0 | 0.0 | 0.00 | 0.00 | 0.00 | 62 | 1013.8 |
| 20260906023048 | 83 | 0 | 0.0 | 0.0 | 0.00 | 0.00 | 0.00 | 61 | 1013.7 |
| 20260906021552 | 84 | 0 | 0.0 | 0.0 | 0.00 | 0.00 | 0.00 | 60 | 1013.6 |
| 20260906020052 | 85 | 0 | 0.0 | 0.0 | 0.00 | 0.00 | 0.00 | 58 | 1013.3 |
| 20260906014554 | 85 | 0 | 0.0 | 0.0 | 0.00 | 0.00 | 0.00 | 57 | 1013.3 |
| 20260906013049 | 86 | 0 | 0.0 | 0.0 | 0.00 | 0.00 | 0.00 | 55 | 1013.1 |
| 20260906011544 | 88 | 0 | 0.0 | 0.0 | 0.00 | 0.00 | 0.00 | 53 | 1013.0 |
| 20260906010046 | 89 | 0 | 0.0 | 0.0 | 0.00 | 0.00 | 0.00 | 52 | 1012.8 |
| 20260906004549 | 91 | 0 | 0.0 | 0.0 | 0.00 | 0.00 | 0.00 | 50 | 1012.7 |
| 20260906003047 | 93 | 0 | 0.0 | 0.0 | 0.00 | 0.00 | 0.00 | 47 | 1012.7 |
| 20260906001554 | 95 | 0 | 0.0 | 0.0 | 0.00 | 0.00 | 0.00 | 44 | 1012.8 |
| 20260906000057 | 96 | 0 | 0.0 | 0.0 | 0.00 | 0.00 | 0.00 | 41 | 1012.8 |
| 20260905234606 | 97 | 0 | 0.0 | 0.9 | 0.00 | 0.00 | 0.00 | 39 | 1012.8 |
| 20260905233056 | 98 | 0 | 0.0 | 0.9 | 0.00 | 0.00 | 0.00 | 38 | 1012.8 |
| 20260905231556 | 98 | 0 | 0.0 | 0.9 | 0.00 | 0.00 | 0.00 | 38 | 1012.8 |
| 20260905230109 | 100 | 0 | 0.0 | 0.9 | 0.00 | 0.00 | 0.00 | 37 | 1012.7 |
| 20260905224544 | 101 | 219 | 0.0 | 0.9 | 0.00 | 0.00 | 0.00 | 36 | 1012.7 |